FW8095 Weather Reports


Display with metric or nautical units.
time (UTC)temp
F
wind
direction
speed
MPH
gust
MPH
rain 1hr
in
rain 24hr
in
rain mn
in
humidity
%
barometer
mb
20260831120101 75 0 0.0 1.0 0.00 0.00 0.00 89 1020.6
20260831114548 75 0 0.0 1.0 0.00 0.00 0.00 90 1020.4
20260831113050 75 0 0.0 1.0 0.00 0.00 0.00 89 1020.3
20260831111554 75 0 0.0 0.0 0.00 0.00 0.00 89 1020.1
20260831110049 75 0 0.0 1.0 0.00 0.00 0.00 88 1020.1
20260831104548 74 0 0.0 0.0 0.00 0.00 0.00 90 1020.0
20260831103041 74 0 0.0 0.0 0.00 0.00 0.00 90 1019.9
20260831101556 74 0 0.0 0.0 0.00 0.00 0.00 90 1019.9
20260831100047 74 0 0.0 0.0 0.00 0.00 0.00 90 1019.8
20260831094544 74 0 0.0 0.0 0.00 0.00 0.00 89 1019.8
20260831093044 75 0 0.0 0.0 0.00 0.00 0.00 88 1019.6
20260831091559 75 0 0.0 0.0 0.00 0.00 0.00 88 1019.6
20260831090044 75 0 0.0 0.0 0.00 0.00 0.00 88 1019.7
20260831084547 75 0 0.0 0.0 0.00 0.00 0.00 88 1019.5
20260831083047 75 0 0.0 0.0 0.00 0.00 0.00 87 1019.4
20260831081543 76 0 0.0 0.0 0.00 0.00 0.00 86 1019.2
20260831080112 76 0 0.0 0.0 0.00 0.00 0.00 86 1019.2
20260831074545 77 0 0.0 0.0 0.00 0.00 0.00 85 1019.1
20260831073105 77 0 0.0 0.0 0.00 0.00 0.00 84 1019.0
20260831071553 77 0 0.0 0.0 0.00 0.00 0.00 83 1019.2
20260831070048 77 0 0.0 0.0 0.00 0.00 0.00 84 1019.1
20260831064549 77 0 0.0 0.0 0.00 0.00 0.00 83 1019.1
20260831063045 78 0 0.0 1.0 0.00 0.00 0.00 82 1019.2
20260831061549 78 0 0.0 1.0 0.00 0.00 0.00 82 1019.3
20260831060055 79 0 0.0 1.0 0.00 0.00 0.00 81 1019.2
20260831054552 79 0 0.0 0.0 0.00 0.00 0.00 80 1019.3
20260831053047 80 0 0.0 1.0 0.00 0.00 0.00 79 1019.4
20260831051543 80 0 0.0 1.0 0.00 0.00 0.00 78 1019.3
20260831050055 80 0 0.0 1.0 0.00 0.00 0.00 77 1019.5
20260831044556 81 0 0.0 2.0 0.00 0.00 0.00 77 1019.5
20260831043043 81 262 0.0 3.0 0.00 0.00 0.00 76 1019.4
20260831041609 81 0 0.0 1.0 0.00 0.00 0.00 76 1019.4
20260831040043 81 0 0.0 1.0 0.00 0.00 0.00 76 1019.3
20260831034553 81 0 0.0 0.0 0.00 0.00 0.00 75 1019.4
20260831033049 81 0 0.0 0.0 0.00 0.00 0.00 74 1019.3
20260831031543 81 0 0.0 1.0 0.00 0.00 0.00 74 1019.4
20260831030059 82 0 0.0 1.0 0.00 0.00 0.00 73 1019.3
20260831024547 82 0 0.0 1.0 0.00 0.00 0.00 73 1019.2
20260831023047 82 0 0.0 1.0 0.00 0.00 0.00 74 1019.3
20260831021547 82 0 0.0 1.0 0.00 0.00 0.00 74 1019.3
20260831020051 82 0 0.0 1.0 0.00 0.00 0.00 74 1019.2
20260831014549 82 0 0.0 0.0 0.00 0.00 0.00 73 1019.0
20260831013050 82 0 0.0 0.0 0.00 0.00 0.00 73 1019.1
20260831011548 83 0 0.0 0.0 0.00 0.00 0.00 72 1018.7
20260831004552 84 0 0.0 0.0 0.00 0.00 0.00 71 1018.3
20260831003052 84 0 0.0 0.0 0.00 0.00 0.00 70 1018.3
20260831001547 85 0 0.0 0.0 0.00 0.00 0.00 68 1018.3
20260831000049 86 0 0.0 0.0 0.00 0.00 0.00 66 1018.2
20260830234546 87 0 0.0 1.0 0.00 0.00 0.00 65 1018.2
20260830233050 87 0 0.0 2.0 0.00 0.00 0.00 64 1018.0
20260830231549 88 0 0.0 2.0 0.00 0.00 0.00 63 1018.1
20260830230047 88 126 0.0 2.0 0.00 0.00 0.00 63 1017.9
20260830224543 88 356 0.0 1.0 0.00 0.00 0.00 62 1017.9
20260830223048 89 101 0.0 2.0 0.00 0.00 0.00 61 1017.8
20260830221545 89 0 0.0 2.0 0.00 0.00 0.00 61 1017.8
20260830220051 89 134 0.0 5.0 0.00 0.00 0.00 61 1017.9
20260830214544 90 91 1.0 3.0 0.00 0.00 0.00 61 1017.9
20260830213052 90 86 1.0 3.0 0.00 0.00 0.00 61 1018.0
20260830211548 90 0 0.0 4.0 0.00 0.00 0.00 60 1018.2
20260830210046 90 260 1.0 5.0 0.00 0.00 0.00 60 1018.3
20260830204544 90 248 0.0 4.0 0.00 0.00 0.00 61 1018.4
20260830203051 90 98 1.0 5.0 0.00 0.00 0.00 60 1018.6
20260830201551 91 299 0.0 3.0 0.00 0.00 0.00 60 1018.7
20260830200048 91 120 0.0 3.0 0.00 0.00 0.00 59 1018.8
20260830194559 91 178 0.0 5.0 0.00 0.00 0.00 58 1019.2
20260830193049 93 274 1.0 6.0 0.00 0.00 0.00 56 1019.4
20260830191547 93 275 1.0 5.0 0.00 0.00 0.00 58 1019.5
20260830190041 92 129 0.0 4.0 0.00 0.00 0.00 59 1019.5
20260830184549 92 236 1.0 7.0 0.00 0.00 0.00 57 1019.8
20260830183044 92 101 0.0 6.0 0.00 0.00 0.00 59 1019.8
20260830181549 90 304 0.0 4.0 0.00 0.00 0.00 63 1020.2
20260830180050 89 108 0.0 3.0 0.00 0.00 0.00 63 1020.6
20260830174609 89 107 1.0 3.0 0.00 0.00 0.00 62 1020.8
20260830173049 90 214 0.0 3.0 0.00 0.00 0.00 63 1021.0
20260830171600 90 0 1.0 7.0 0.00 0.00 0.00 64 1021.0
20260830170048 90 95 1.0 4.0 0.00 0.00 0.00 65 1021.2
20260830164542 89 205 1.0 4.0 0.00 0.00 0.00 65 1021.5
20260830163052 88 188 2.0 5.0 0.00 0.00 0.00 68 1021.7
20260830161553 86 100 1.0 3.0 0.00 0.00 0.00 70 1021.7
20260830160044 88 307 1.0 2.0 0.00 0.00 0.00 67 1021.7
20260830154551 87 321 0.0 6.0 0.00 0.00 0.00 70 1021.9
20260830153042 86 242 1.0 4.0 0.00 0.00 0.00 72 1021.7
20260830151546 85 227 1.0 5.0 0.00 0.00 0.00 75 1021.7
20260830150048 85 110 1.0 5.0 0.00 0.00 0.00 75 1021.9
20260830144547 85 326 0.0 6.0 0.00 0.00 0.00 77 1021.9
20260830143041 84 84 1.0 5.0 0.00 0.00 0.00 77 1021.9
20260830141547 82 312 0.0 4.0 0.00 0.00 0.00 81 1021.9
20260830140104 81 283 0.0 2.0 0.00 0.00 0.00 81 1021.9
20260830134544 80 112 0.0 4.0 0.00 0.00 0.00 84 1022.0
20260830133046 79 276 0.0 3.0 0.00 0.00 0.00 86 1021.9
20260830131540 77 94 0.0 3.0 0.00 0.00 0.00 89 1021.9
20260830130054 76 0 0.0 1.0 0.00 0.00 0.00 90 1021.6
20260830124543 76 0 0.0 1.0 0.00 0.00 0.00 91 1021.4
20260830123047 75 0 0.0 2.0 0.00 0.00 0.00 92 1021.3
20260830121547 74 0 0.0 1.0 0.00 0.00 0.00 93 1021.1